GFSSW_sfc_thetae_000.txt.gz
Theta_e
319 320 320 320 320 320 320 320 320 321 322 322 323 323 323 323 322 322 313 320 322 336 334 321 323 317 316 313 315 310 298 293 293 296 296 298 297 303 306 305 307 308 306 307 308
318 318 319 319 319 319 319 319 320 321 321 322 322 322 322 322 316 312 324 334 336 338 322 317 314 315 309 310 312 304 295 297 300 299 297 300 301 303 304 304 305 306 308 309 309
317 317 318 318 318 318 318 319 319 320 321 321 321 321 322 321 313 313 335 334 338 337 320 319 315 313 307 308 308 305 299 301 301 302 301 301 301 304 303 300 303 303 304 306 306
316 317 317 316 316 317 317 318 318 319 320 320 320 321 322 318 300 316 341 338 340 330 319 314 311 304 302 302 308 302 303 303 302 303 301 301 303 303 304 303 308 308 306 305 305
314 315 315 315 315 315 316 316 317 318 318 319 320 321 319 309 308 323 342 342 332 322 316 312 308 306 302 304 304 300 302 304 304 302 302 304 301 302 302 307 308 307 306 305 304
313 313 314 313 313 315 315 315 315 315 316 318 320 321 312 303 317 325 329 327 322 318 316 313 311 311 307 304 301 303 303 303 302 301 301 299 301 302 304 308 307 305 303 304 305
314 313 312 312 313 314 314 314 314 315 316 318 320 319 313 307 318 325 325 320 319 318 314 316 315 311 308 302 305 303 298 300 300 301 299 301 299 299 306 307 306 304 304 305 305
313 313 312 312 312 313 314 314 313 315 318 320 322 316 307 317 318 320 319 318 320 319 318 317 314 308 305 305 304 300 297 292 298 301 301 300 293 302 305 304 303 303 304 304 305
313 312 312 311 311 312 313 312 314 317 320 323 314 312 306 319 315 318 320 316 317 318 317 319 311 306 305 299 295 296 290 292 296 301 301 297 294 303 304 304 303 302 303 303 304
312 311 311 311 311 311 311 311 313 319 320 322 319 304 306 307 315 318 318 319 315 314 313 310 304 300 298 295 290 293 292 295 295 298 299 295 294 301 303 303 303 301 302 303 304
311 311 310 310 310 310 306 303 304 308 310 304 303 307 311 312 317 315 318 315 315 310 303 306 299 295 297 298 300 300 297 296 298 300 298 296 295 299 301 303 301 300 300 301 303
310 310 310 310 310 310 303 299 304 305 298 309 310 308 311 314 309 313 317 310 307 301 304 301 296 302 303 302 300 299 296 296 298 300 297 296 296 299 301 303 303 301 300 301 302
311 310 309 309 309 304 303 306 310 308 298 305 308 308 309 309 306 307 313 309 305 301 301 298 301 306 303 300 298 297 296 296 296 299 298 296 294 297 301 303 305 302 302 302 302
311 310 309 309 300 297 300 305 306 307 293 299 304 307 309 308 304 313 315 310 305 301 301 300 304 303 301 299 299 293 300 300 299 295 289 297 285 294 298 300 303 301 300 300 302
311 309 309 307 296 293 302 302 305 305 280 300 303 312 309 305 306 307 315 309 303 302 302 300 301 300 299 300 301 296 301 298 299 293 291 293 287 293 298 298 302 301 300 301 302
311 310 309 301 298 298 302 301 304 292 282 297 302 302 302 305 306 307 308 311 309 303 303 302 306 304 303 303 301 302 298 298 295 291 285 291 290 290 294 299 302 302 301 302 302
311 310 306 304 295 301 302 301 290 285 297 294 296 300 300 300 302 303 302 302 299 294 295 300 301 304 302 297 300 298 293 286 283 283 283 294 291 294 299 301 305 302 302 302 304
310 309 306 305 301 302 297 295 284 291 293 300 299 298 296 300 299 301 299 298 301 298 295 293 292 301 304 298 295 294 294 287 281 282 288 298 290 294 306 305 307 306 303 303 302
308 300 301 302 304 300 292 288 288 292 296 296 297 294 294 298 299 299 298 297 299 300 295 293 294 303 303 302 300 294 292 296 290 292 288 293 301 305 307 305 306 304 302 301 302
301 295 296 302 303 295 288 291 293 299 300 298 291 295 292 295 295 295 297 300 300 302 303 298 293 300 304 307 305 298 300 291 289 282 282 289 298 295 302 302 304 301 301 301 302
299 292 298 303 301 289 285 291 295 301 300 297 294 293 294 293 295 295 296 301 302 302 304 301 295 296 304 301 297 299 297 298 295 292 284 282 292 304 305 305 303 302 302 302 303
296 287 298 303 287 287 284 292 297 297 300 298 298 296 294 295 295 295 296 299 304 304 299 300 296 293 300 306 308 306 303 301 293 292 293 293 292 308 308 307 306 303 304 303 305
292 290 298 300 283 283 287 290 295 296 297 296 295 297 298 294 292 296 299 304 305 303 300 301 294 291 293 300 304 299 303 304 302 299 293 290 292 308 309 308 307 304 304 304 304
294 287 290 296 293 286 284 285 288 295 295 297 296 297 294 292 295 294 297 304 306 305 311 307 295 296 292 295 301 298 301 303 301 294 294 295 299 303 307 306 309 305 304 304 304
295 290 290 286 288 289 287 287 285 286 294 296 293 294 293 290 293 293 296 299 304 310 305 302 295 297 299 301 303 301 301 301 300 300 296 298 300 302 306 309 311 309 306 304 303
288 291 290 291 291 289 290 287 288 290 289 290 290 293 294 291 293 292 297 298 299 304 305 304 294 300 300 303 302 300 302 302 302 302 301 301 300 307 310 312 311 309 307 305 304
294 298 294 289 289 289 288 289 290 292 293 294 293 293 293 296 299 299 299 301 304 303 304 300 298 294 293 301 299 294 300 301 303 303 302 297 302 308 307 309 309 309 309 307 306

GFSSW_sfc_thetae_003.txt.gz
Theta_e
319 319 319 319 319 319 319 319 320 320 321 322 322 322 322 323 322 318 310 317 320 336 333 323 319 316 314 309 313 307 299 294 294 294 295 297 296 300 304 303 305 305 304 305 307
317 318 318 318 318 318 318 318 318 319 320 321 321 321 321 322 315 310 324 333 336 339 318 314 311 312 307 307 308 303 295 296 298 297 296 297 299 301 302 303 302 302 306 307 307
316 316 317 317 316 317 317 317 317 318 320 320 320 320 321 320 311 311 334 333 337 337 318 317 312 310 303 304 305 303 300 300 299 300 299 298 299 303 301 298 302 300 302 304 305
314 315 315 315 315 315 315 315 316 317 317 319 319 320 321 317 298 310 342 338 338 329 315 312 309 303 300 300 304 300 305 303 302 301 300 299 302 302 302 302 306 305 304 304 304
314 314 313 314 314 315 315 315 315 316 316 317 318 319 317 307 306 320 341 342 333 322 316 311 308 306 301 303 304 299 301 302 303 301 300 302 300 301 301 305 306 305 305 304 303
314 313 313 313 313 314 314 314 314 315 316 316 318 319 310 302 315 317 327 326 323 316 314 312 309 310 306 305 301 303 302 302 300 300 299 299 299 301 302 306 304 303 302 303 304
313 313 313 312 312 313 314 314 313 314 315 317 318 317 310 303 314 321 323 319 318 318 313 314 313 310 308 303 306 303 299 300 299 299 299 300 297 298 303 305 302 302 302 303 304
313 313 312 312 311 312 313 313 313 314 315 318 321 314 302 313 314 311 318 317 317 319 316 314 315 309 305 306 303 300 297 292 298 300 300 299 292 299 304 303 301 301 302 303 304
312 312 311 311 311 311 311 311 313 315 318 323 313 309 302 316 312 314 316 314 315 316 316 317 311 305 304 299 295 297 292 293 296 300 299 296 294 300 303 302 300 300 301 302 303
312 311 311 310 310 310 310 311 312 314 321 319 317 300 301 303 313 315 317 317 313 311 310 308 303 300 297 296 290 292 293 294 294 297 297 294 295 298 302 301 300 300 300 302 303
311 311 311 311 310 310 306 301 301 306 309 301 300 302 307 310 312 312 315 313 313 308 301 303 297 294 297 298 299 298 296 295 298 300 297 295 295 297 301 300 299 299 299 301 302
311 310 310 311 310 310 302 296 301 300 296 305 308 306 309 310 304 310 316 308 305 300 302 299 294 300 302 301 298 297 294 294 297 300 296 295 295 297 300 300 299 299 299 300 300
311 311 310 310 310 302 300 302 303 303 296 302 306 306 306 308 304 304 312 309 304 300 299 297 301 304 301 299 297 296 294 294 294 298 296 294 292 295 299 301 301 300 300 300 301
312 311 310 310 298 295 296 301 301 301 292 296 301 305 307 307 302 310 312 308 303 301 299 299 302 302 299 298 298 292 298 298 297 293 287 295 284 292 296 298 300 299 298 299 300
311 310 310 308 296 294 298 301 302 300 279 297 301 309 306 302 304 305 311 307 302 301 300 299 299 298 298 299 300 297 301 297 296 292 288 291 286 291 296 295 299 298 299 298 300
311 311 310 302 296 299 302 301 300 290 280 294 300 300 299 302 303 304 306 309 308 301 300 301 304 302 301 303 302 303 296 295 293 289 283 289 288 288 293 297 299 299 300 300 300
311 311 308 303 294 300 302 298 289 283 295 293 294 299 299 297 299 301 300 298 297 293 293 298 299 301 303 297 298 295 290 283 282 282 283 292 289 291 297 300 302 302 300 300 301
311 310 307 305 300 301 297 292 283 290 291 297 295 297 295 298 298 299 298 296 298 298 294 292 291 299 302 298 296 293 292 285 280 280 286 294 288 294 301 306 303 306 302 301 300
308 304 302 302 305 300 290 286 288 290 295 295 295 292 292 297 297 297 297 297 298 299 295 292 293 301 301 301 298 293 290 293 288 288 286 289 295 302 303 304 303 300 300 300 300
305 299 296 302 303 295 287 290 292 297 297 297 290 293 290 292 293 294 295 300 299 300 300 296 290 298 301 301 300 295 297 289 287 281 280 286 291 293 300 302 303 299 298 300 300
301 293 297 303 300 289 281 288 295 299 299 295 292 290 293 292 294 293 294 299 301 300 301 297 294 294 299 297 295 295 294 294 290 288 283 280 288 301 302 304 303 301 300 300 301
298 287 297 301 286 286 283 288 297 298 299 298 296 294 293 294 293 292 294 298 303 301 295 298 293 290 296 302 304 298 296 295 289 287 290 288 290 303 305 308 306 303 302 302 303
292 292 298 298 282 283 287 288 293 295 297 294 294 296 296 293 289 295 297 301 301 300 296 297 291 288 291 298 301 297 301 300 297 295 291 289 291 304 308 305 305 301 302 302 302
292 286 292 294 290 286 285 285 286 294 293 294 294 295 292 291 293 292 296 300 300 301 310 304 292 293 289 292 298 296 300 301 297 291 294 294 296 300 305 305 307 302 301 302 303
293 287 289 286 287 288 284 285 285 285 292 294 292 293 291 287 290 290 294 295 299 304 300 299 293 294 297 298 300 298 299 300 296 296 294 297 297 302 305 306 309 304 301 301 302
287 289 293 288 290 288 288 285 285 286 287 289 289 292 291 288 290 289 292 292 293 296 297 298 292 298 296 298 300 298 300 301 300 299 298 299 298 307 309 311 308 306 302 302 302
294 297 294 288 286 285 286 287 288 290 291 293 291 289 290 292 294 294 295 295 293 291 292 297 294 293 291 298 299 293 298 299 300 302 300 295 302 306 306 309 308 309 305 303 304

GFSSW_sfc_thetae_006.txt.gz
Theta_e
318 318 318 318 319 318 318 318 319 319 320 321 322 321 321 322 321 316 309 314 318 335 331 327 318 316 312 308 312 306 298 294 297 292 294 295 294 298 303 302 303 303 303 304 305
316 316 316 317 317 317 317 317 317 319 320 320 321 320 321 321 315 309 320 332 334 338 315 313 310 311 305 305 307 303 296 298 301 297 296 296 296 300 301 301 300 301 304 306 306
315 315 315 315 316 316 316 316 316 317 319 319 319 319 320 319 309 309 333 332 336 337 316 314 311 309 302 302 303 302 300 302 302 300 299 297 296 300 300 297 300 299 302 303 304
315 315 315 314 314 315 315 315 315 316 317 317 318 318 320 314 294 310 344 342 338 327 314 310 306 301 299 299 303 299 304 303 303 303 298 298 300 301 300 301 305 303 304 303 303
314 314 314 314 314 314 315 314 315 315 315 315 317 318 315 303 304 316 342 340 328 318 313 309 305 302 298 301 303 301 302 302 301 299 300 301 299 300 301 304 305 303 304 303 303
313 313 313 313 313 313 314 314 314 314 314 315 317 318 306 296 310 313 319 326 322 315 312 311 308 307 302 302 302 304 301 301 298 297 298 299 298 300 302 305 303 302 302 303 304
312 312 312 312 312 312 313 313 312 313 314 315 317 316 307 298 308 317 322 317 318 316 311 312 311 308 305 301 303 301 298 300 300 298 298 299 296 298 302 303 301 301 301 303 304
312 312 312 311 311 311 311 312 312 313 315 317 319 314 299 308 310 306 307 311 315 317 314 313 312 308 306 306 303 298 295 292 298 299 300 298 292 299 302 301 299 300 301 302 303
312 312 312 311 311 311 311 311 312 313 321 321 313 306 297 312 310 311 310 308 313 314 314 316 308 304 302 298 295 296 292 293 296 299 298 296 294 299 302 301 299 299 300 301 302
312 312 312 311 311 311 311 310 310 312 320 320 316 299 299 298 308 311 312 313 310 310 308 306 301 298 294 294 289 291 292 294 294 297 296 294 294 297 301 301 300 299 300 301 302
313 312 311 311 310 310 306 298 299 302 307 300 298 298 303 309 310 309 314 312 310 305 299 301 296 293 295 297 298 297 294 294 297 299 296 295 295 299 299 299 298 298 298 299 301
313 313 311 311 310 310 301 294 297 297 293 303 303 305 308 307 302 305 313 306 304 298 300 297 294 298 300 299 297 295 293 292 296 298 295 295 294 296 298 299 299 298 298 299 300
312 312 311 310 310 300 297 299 301 298 293 300 303 303 304 306 302 303 309 306 302 298 297 295 298 302 300 298 296 294 292 292 293 296 295 292 291 293 297 298 300 298 299 300 300
312 311 311 310 298 296 294 300 300 298 290 294 299 303 304 305 300 307 311 307 302 299 298 297 301 300 297 297 297 292 298 297 295 292 287 293 283 291 294 296 299 297 297 299 300
312 311 311 308 296 294 297 300 300 297 277 294 299 307 303 301 301 303 309 305 300 300 299 298 297 297 296 298 298 296 299 296 295 290 287 289 284 289 294 295 296 298 297 298 299
312 311 310 300 296 298 301 300 298 289 280 292 299 298 297 299 300 301 303 307 305 300 299 300 302 301 300 301 300 301 295 293 291 288 282 288 287 287 291 296 297 298 298 299 299
311 312 308 301 293 298 299 296 288 282 293 291 293 297 297 295 297 299 298 297 295 292 292 296 296 300 302 297 296 295 289 283 281 281 282 290 287 290 296 299 300 300 298 299 300
309 310 308 303 300 300 295 290 281 290 289 296 294 295 293 296 296 296 295 294 297 296 292 291 290 297 300 298 295 291 290 284 279 278 282 291 286 292 299 303 303 303 300 299 299
307 304 303 303 302 298 289 283 286 289 294 292 293 291 291 295 295 295 294 295 296 298 294 290 291 299 300 300 299 292 288 291 286 286 284 287 292 299 302 302 302 299 299 298 299
301 300 301 303 303 294 284 285 289 296 296 295 289 291 289 292 293 293 293 297 296 299 299 295 289 297 300 299 297 296 296 287 285 280 279 284 288 291 296 299 302 299 297 298 299
299 293 302 304 302 291 280 283 289 298 297 293 292 290 291 291 293 291 292 297 299 298 300 295 293 292 297 295 293 292 291 291 288 286 281 278 285 296 299 304 304 302 298 299 300
297 287 301 302 288 288 283 286 292 293 298 296 294 292 291 292 291 292 293 296 301 301 295 296 292 289 294 297 301 297 294 294 286 285 287 285 287 300 303 306 308 305 300 299 301
292 292 300 299 284 284 286 287 289 290 294 293 292 295 294 292 289 292 294 299 299 300 295 296 289 285 286 295 299 296 298 295 293 291 289 287 288 301 305 305 307 304 299 300 300
287 284 290 293 292 286 284 284 285 291 290 293 293 294 292 291 291 291 294 298 298 300 308 302 290 290 288 289 297 294 298 298 294 288 290 291 294 299 303 304 306 302 300 300 301
288 285 290 283 286 286 284 284 284 284 291 292 290 292 290 287 289 288 292 294 298 303 300 295 289 291 292 294 297 296 297 298 294 295 292 294 295 300 301 305 307 303 300 299 300
286 287 290 286 289 287 287 283 284 287 285 287 288 292 290 287 288 288 290 291 291 292 292 295 289 291 290 294 294 294 296 299 299 296 296 297 295 303 306 308 309 304 301 300 301
292 295 292 287 288 286 286 286 287 288 289 290 290 289 287 290 292 292 292 292 291 290 289 291 292 289 285 294 294 290 295 298 299 299 298 295 299 303 304 307 307 307 302 302 303

GFSSW_sfc_thetae_009.txt.gz
Theta_e
317 317 317 317 318 318 317 317 318 318 319 320 320 321 321 322 321 319 309 316 320 336 336 329 324 321 319 318 319 315 308 303 305 305 306 305 304 305 308 307 308 309 309 310 312
316 316 316 316 316 317 316 316 316 318 319 319 319 320 320 321 316 309 320 330 335 339 326 321 317 318 315 313 314 312 307 306 311 309 307 306 305 306 306 305 306 306 308 310 311
315 315 315 315 316 316 315 315 316 316 317 318 317 318 320 320 310 308 336 334 336 334 321 320 319 316 312 312 312 310 305 308 309 311 309 306 303 307 306 304 308 307 308 309 311
314 315 315 315 315 314 314 314 315 315 316 315 316 318 320 317 296 312 344 338 339 327 319 316 314 310 308 306 310 305 310 310 311 309 305 304 306 304 306 308 310 310 311 310 310
313 313 313 313 313 313 313 313 313 314 314 314 316 317 316 305 302 316 341 340 332 322 315 315 312 310 307 308 308 307 309 308 308 306 306 305 304 305 306 309 310 310 309 310 311
313 312 312 312 312 312 313 313 313 313 313 314 315 317 310 297 310 315 315 322 321 319 316 315 313 314 310 308 307 310 308 305 305 304 304 304 304 305 307 310 308 308 309 309 310
313 312 312 312 312 312 312 313 312 312 313 315 316 315 308 302 309 322 324 322 324 320 314 317 316 313 313 308 311 307 304 304 305 305 304 305 302 303 309 309 308 307 308 308 311
313 313 312 312 312 312 312 312 312 312 314 317 318 315 300 310 313 309 313 314 316 321 318 318 317 314 311 311 307 303 303 300 304 304 303 304 299 307 308 307 307 306 306 308 310
313 313 312 312 311 311 311 311 311 312 316 319 315 311 301 314 310 312 310 306 309 317 319 317 317 312 308 305 301 302 299 300 300 304 302 302 300 306 306 307 307 306 306 307 309
313 312 312 311 311 311 311 310 310 311 320 319 317 305 306 303 308 314 313 311 312 314 313 312 309 307 305 303 295 298 298 298 299 303 302 301 300 306 307 306 307 306 306 307 308
314 312 312 312 311 310 308 303 304 307 313 303 303 301 303 309 312 311 315 310 313 311 305 308 304 301 304 305 304 303 300 299 301 305 302 302 302 304 307 306 306 306 306 307 309
313 313 313 312 311 310 305 297 298 298 296 304 305 308 310 310 303 307 317 309 309 303 306 303 301 306 306 304 302 301 299 299 302 303 302 302 301 305 306 306 307 308 307 307 309
312 313 312 311 310 304 298 300 304 302 297 300 304 304 306 308 303 304 313 309 306 303 304 303 305 305 304 302 301 301 300 300 300 301 302 300 299 303 306 305 306 308 309 309 309
311 312 311 310 302 301 297 303 304 301 293 296 300 304 306 307 302 309 311 310 306 303 304 305 306 304 303 302 303 299 304 302 301 299 295 300 293 300 304 305 306 307 307 307 309
310 312 311 308 302 299 300 304 304 301 282 297 301 310 307 303 304 304 312 310 305 304 305 303 302 302 301 303 304 302 304 302 301 299 297 297 294 298 302 303 307 310 308 308 309
310 310 311 304 303 303 304 303 302 293 283 294 302 300 300 302 302 305 305 311 311 306 305 306 307 307 306 306 305 306 302 300 299 298 292 297 295 297 300 304 307 309 308 307 308
309 309 308 303 298 303 303 300 292 286 295 293 296 300 299 298 299 302 300 300 300 298 299 302 304 306 308 303 303 304 301 293 291 292 291 296 294 298 305 308 307 308 309 308 308
308 308 307 304 301 304 301 294 285 291 292 297 297 299 296 299 299 299 299 297 303 303 300 297 295 302 305 305 302 301 302 294 287 288 292 295 293 298 307 310 311 310 310 308 308
306 305 303 305 304 303 293 286 288 291 296 295 296 295 295 298 298 298 298 298 301 305 298 297 297 304 305 306 306 299 297 303 297 294 292 295 299 305 309 310 309 307 306 306 308
301 300 299 304 305 298 289 286 291 297 298 297 293 296 294 295 296 296 296 300 299 304 308 301 296 302 304 306 304 303 304 295 296 288 287 292 294 297 304 307 310 307 306 307 308
299 293 301 306 302 292 283 286 291 297 298 296 294 294 296 295 297 296 296 299 302 301 306 305 302 298 302 301 300 299 298 299 298 296 291 289 294 306 307 311 313 312 309 307 308
296 287 302 305 288 288 286 288 292 292 296 296 298 297 296 297 296 296 296 299 303 304 300 304 303 297 298 303 307 305 301 302 295 294 295 295 295 308 312 314 316 313 309 309 310
291 290 302 301 283 285 289 289 290 289 291 294 295 297 299 297 295 298 298 302 302 303 303 304 302 295 295 302 305 300 302 303 303 302 296 293 296 309 312 314 314 312 309 308 309
290 285 288 294 293 288 287 287 286 291 290 291 291 297 296 295 297 295 297 299 302 303 310 307 303 299 293 296 302 300 301 302 302 296 296 297 299 305 310 312 312 313 311 309 309
290 286 289 284 285 287 288 288 286 285 291 294 291 293 294 293 294 294 297 298 300 306 305 306 298 300 301 301 302 301 301 303 300 301 297 300 301 305 310 312 315 315 311 308 308
286 287 288 288 287 288 288 286 286 287 289 288 289 294 294 293 293 294 295 297 296 299 302 302 299 300 297 299 300 298 300 302 303 302 302 302 302 311 313 315 314 312 309 308 309
293 295 291 288 288 287 287 287 288 290 291 292 291 291 291 294 297 298 298 298 297 296 296 300 300 297 293 298 298 294 298 300 302 304 303 299 305 311 311 313 315 314 311 311 312

GFSSW_sfc_thetae_012.txt.gz
Theta_e
317 317 317 317 318 317 317 317 317 318 318 319 320 320 321 321 321 321 311 318 322 340 337 330 326 325 326 323 324 321 310 307 309 309 312 316 313 314 314 312 312 314 314 316 319
316 316 316 316 316 316 316 316 316 317 318 319 318 319 320 321 316 311 322 331 336 341 327 323 321 322 320 320 319 314 308 308 313 315 314 316 314 315 310 310 311 312 314 316 317
314 315 315 315 315 315 315 315 315 315 316 317 317 318 320 321 311 310 340 335 338 339 324 325 323 321 316 318 316 313 308 312 313 316 316 314 313 315 311 309 312 312 314 315 316
314 314 314 314 314 314 314 314 314 315 315 315 315 318 319 317 299 319 342 338 339 329 322 322 319 316 314 312 316 310 312 313 315 315 313 312 314 310 311 313 315 315 316 316 316
313 314 313 313 313 313 313 313 314 314 314 314 315 317 314 308 305 320 342 340 330 323 317 317 315 315 311 314 314 311 311 314 316 314 313 312 310 310 311 314 315 315 316 316 317
313 313 313 313 313 313 314 314 313 314 313 314 315 316 311 300 313 315 318 320 318 321 317 318 317 318 314 314 312 313 313 313 314 312 311 309 310 309 312 314 314 314 315 316 316
314 313 313 313 313 313 313 313 313 312 313 315 316 316 307 304 314 317 319 321 319 319 316 318 320 316 315 312 316 313 309 311 311 311 310 310 307 308 314 314 313 313 315 315 316
313 313 313 313 313 313 313 313 312 312 313 315 319 316 304 313 317 314 315 319 324 322 320 321 321 318 315 316 312 308 309 305 311 310 309 308 302 310 313 312 312 313 314 314 316
314 313 313 313 313 312 313 312 312 312 313 319 318 314 304 315 310 314 315 312 314 318 320 321 319 315 314 309 307 307 302 305 307 312 309 308 306 311 313 312 312 313 314 313 315
314 313 313 313 312 312 312 312 313 311 320 321 319 309 309 306 311 314 316 312 310 311 316 315 314 310 310 308 300 302 303 305 305 309 308 307 307 309 312 312 312 314 314 313 314
313 313 313 313 313 312 309 308 307 310 315 306 307 304 306 310 314 313 316 310 313 313 308 313 307 304 308 310 309 307 305 304 307 309 307 307 307 309 312 312 312 313 314 314 315
310 312 313 313 312 311 309 302 304 303 299 308 310 310 311 312 306 310 317 307 307 305 310 308 304 310 311 310 308 307 305 305 307 309 307 306 306 309 311 312 314 314 315 315 316
311 311 312 313 312 309 306 304 308 308 300 302 306 307 308 311 307 308 314 309 305 305 306 305 307 312 310 308 306 306 305 305 304 308 308 306 304 307 310 312 313 315 316 317 316
310 311 311 311 305 309 303 307 309 308 296 299 301 305 308 308 304 312 315 310 308 304 307 307 311 309 308 307 307 303 308 307 305 303 298 306 296 304 307 308 311 314 315 316 316
308 309 310 309 308 304 305 310 309 308 287 303 304 313 308 304 305 306 314 312 305 306 308 306 308 307 306 307 309 305 309 307 306 303 303 302 299 303 306 305 308 312 316 317 317
307 309 310 307 308 310 311 309 307 295 287 298 304 303 303 304 304 307 307 312 312 307 309 308 313 311 309 310 309 310 306 306 306 303 296 301 300 299 304 305 309 312 315 316 316
306 307 308 307 300 311 310 303 293 289 300 297 299 303 302 300 302 304 302 301 301 299 301 305 307 311 311 307 309 308 304 296 295 295 294 302 298 301 307 309 311 313 316 317 316
306 307 308 306 306 308 306 295 287 295 297 301 301 302 300 302 301 302 301 299 304 305 302 299 297 307 310 307 304 305 304 297 290 292 296 301 296 303 309 313 316 316 317 317 316
305 303 305 308 308 303 297 287 290 296 300 299 299 298 299 302 301 301 301 300 303 306 301 300 300 309 310 310 309 304 301 307 300 301 296 299 302 308 309 311 314 315 314 315 316
300 300 301 309 308 299 290 288 293 299 300 301 296 300 297 299 299 300 300 303 302 306 310 306 300 306 308 310 309 307 308 299 301 293 291 296 298 300 305 306 314 315 314 315 316
299 294 303 310 307 293 285 289 293 299 300 299 298 298 300 300 300 299 300 303 305 304 308 308 305 303 306 305 303 304 303 304 304 301 294 293 298 308 307 310 312 317 317 316 316
295 288 305 307 289 288 287 293 294 295 298 297 299 300 300 301 300 300 300 303 306 306 302 308 305 300 302 308 309 308 304 305 298 297 300 299 299 311 311 313 317 320 318 317 317
292 293 305 302 285 285 292 292 294 293 294 295 295 300 303 301 299 302 302 305 306 305 304 308 303 297 299 304 308 304 305 306 306 305 300 297 299 312 313 315 318 319 319 317 317
295 286 292 293 293 291 289 289 288 295 294 294 294 297 298 299 303 301 302 305 306 306 311 311 305 301 296 300 304 302 303 305 305 300 300 300 302 308 311 313 316 320 320 317 317
296 289 292 287 287 291 290 290 288 288 294 295 293 294 296 297 298 299 303 304 305 307 309 310 302 303 303 304 304 303 302 303 302 304 300 302 303 307 310 313 315 320 320 317 316
289 290 290 291 290 288 290 289 288 289 290 291 291 294 297 297 299 298 301 303 302 306 306 310 301 303 300 303 303 301 303 304 304 304 304 305 304 311 313 314 316 319 319 317 317
295 296 292 289 289 288 288 289 290 292 293 295 294 293 294 299 301 303 304 303 303 305 306 306 302 301 296 301 300 297 301 303 305 307 306 302 307 311 311 313 315 319 319 319 319

GFSSW_sfc_thetae_015.txt.gz
Theta_e
316 316 316 317 317 316 317 316 317 317 318 318 319 320 320 321 320 322 314 319 324 340 340 332 330 328 328 323 324 323 312 308 310 310 312 317 315 319 319 316 315 316 316 319 323
315 315 315 315 315 315 316 316 316 316 317 317 317 318 319 320 318 313 324 330 339 341 331 327 323 324 320 319 320 316 311 310 314 315 313 316 316 317 315 315 314 315 318 318 320
315 315 315 315 315 314 314 315 315 315 316 316 317 317 318 319 314 313 341 334 339 338 327 329 326 323 317 319 318 316 310 313 313 314 316 315 315 317 314 312 315 313 315 319 319
314 314 314 314 314 314 314 314 314 315 315 315 315 317 319 317 301 322 339 339 340 329 322 322 322 318 316 314 319 313 315 314 313 315 316 314 316 314 314 314 317 316 316 319 318
314 314 314 314 314 314 314 314 314 314 314 314 315 316 316 309 308 320 342 336 324 320 318 317 317 318 314 316 316 313 313 315 315 316 317 317 313 314 313 316 316 316 316 317 318
315 314 314 314 314 314 314 314 314 314 313 313 315 317 312 301 314 317 324 327 326 320 318 319 318 320 316 315 313 316 316 314 315 315 316 312 313 312 315 315 315 316 315 315 317
315 315 315 314 314 314 314 314 314 314 313 314 315 315 309 304 315 317 315 315 318 321 318 319 319 317 317 313 317 316 311 313 313 314 314 315 309 311 316 317 314 314 316 317 319
315 314 315 314 314 314 314 314 313 313 314 315 316 315 306 314 318 315 317 318 322 321 317 322 320 317 317 318 314 311 312 306 312 314 314 312 305 314 317 315 315 315 316 317 318
313 314 315 315 314 314 314 313 313 314 314 315 317 314 305 319 312 314 316 312 314 320 320 320 319 313 315 310 307 310 303 305 308 315 313 311 307 314 317 315 314 315 317 317 317
312 313 313 315 315 314 313 312 314 314 316 320 315 310 312 307 313 315 316 314 312 315 315 315 314 309 310 308 301 304 305 307 306 312 313 309 309 314 316 315 314 315 317 317 318
311 311 311 313 314 313 311 312 308 310 313 307 307 306 308 312 314 312 315 313 312 310 305 311 308 304 308 310 310 309 308 306 310 313 311 309 310 312 315 314 314 314 316 318 319
309 311 311 312 313 313 312 306 308 307 303 314 313 311 313 313 307 310 317 308 307 302 306 308 304 310 311 310 309 309 307 306 310 313 311 310 308 312 313 313 314 315 316 318 319
308 309 310 312 312 311 310 309 313 312 301 304 308 309 310 312 307 309 313 309 305 303 304 304 308 311 310 309 308 308 307 307 307 310 312 309 306 309 312 314 315 315 317 319 320
307 308 310 311 306 311 308 313 312 312 296 300 304 307 309 310 305 313 314 311 306 303 306 307 311 309 308 308 309 305 310 309 307 306 301 309 298 306 310 310 312 314 316 318 320
307 306 308 309 305 308 309 313 312 309 288 306 307 314 311 306 306 307 315 312 305 304 306 304 307 308 307 308 311 307 311 309 308 305 305 304 301 305 309 307 309 313 315 319 321
308 307 308 308 309 310 313 312 308 295 288 301 307 305 304 305 306 309 308 313 312 307 307 306 312 311 310 312 312 313 309 308 308 305 297 302 302 302 305 306 309 312 315 319 320
309 307 306 307 305 311 310 307 292 289 302 300 302 305 304 302 303 305 303 303 303 299 301 305 306 311 313 309 312 310 306 298 296 297 295 305 301 304 309 309 310 312 315 321 320
309 307 305 306 312 309 305 297 287 295 298 304 304 304 301 304 302 303 302 301 306 305 303 300 298 308 313 310 307 307 306 298 292 294 298 305 298 304 311 312 313 316 320 322 320
307 306 304 305 310 307 297 286 289 296 301 301 303 300 301 304 303 303 303 301 304 307 302 301 301 309 311 312 311 306 302 308 302 303 299 301 305 310 310 310 313 316 318 319 319
302 299 299 306 310 303 290 286 293 299 301 303 298 301 299 302 301 301 302 305 304 307 310 308 301 308 309 312 312 309 310 301 302 294 293 299 301 303 306 308 314 316 317 318 319
299 293 302 307 309 296 284 289 293 299 301 297 298 298 301 302 303 302 302 305 307 306 308 308 307 305 309 306 305 305 304 306 306 303 296 295 299 310 309 310 311 317 319 318 318
297 292 305 310 292 291 286 292 295 295 299 298 298 298 299 303 303 302 302 305 309 309 303 309 308 302 304 310 312 309 306 307 300 299 302 301 301 312 312 313 315 317 319 319 319
293 296 307 306 285 289 293 292 293 294 295 295 296 298 301 299 299 304 305 309 309 308 307 310 305 301 303 306 309 306 307 307 308 307 302 298 300 313 314 313 315 317 319 319 319
295 290 297 299 297 291 290 291 289 296 295 296 296 298 296 297 303 302 304 308 309 308 311 313 308 304 299 303 306 303 305 306 306 302 301 302 304 309 312 312 314 318 320 321 319
298 292 294 287 289 290 290 291 290 289 296 297 295 295 295 296 301 302 305 307 308 309 310 312 306 305 306 307 306 305 304 305 304 305 302 304 305 309 312 313 314 319 320 320 319
292 293 296 293 292 290 290 289 288 291 293 293 292 295 296 296 299 298 302 306 305 307 307 314 305 306 303 305 306 304 305 306 305 305 305 306 306 313 315 315 315 317 320 319 320
303 303 295 290 289 290 288 291 290 293 293 296 295 293 293 297 300 303 306 307 310 306 306 307 306 304 299 303 303 300 304 305 305 306 306 303 309 313 312 313 315 317 319 319 321

GFSSW_sfc_thetae_018.txt.gz
Theta_e
316 316 316 316 316 316 316 316 316 317 317 317 317 319 319 320 319 317 313 317 321 338 339 330 329 328 328 323 323 323 311 307 309 309 310 317 315 319 321 316 317 317 315 319 324
315 315 316 316 315 315 315 315 315 316 316 316 317 317 318 319 313 311 322 334 340 340 326 325 324 325 320 319 319 315 310 309 314 314 311 314 314 315 315 315 315 315 318 320 321
315 315 315 315 315 315 315 315 315 315 315 315 316 316 318 318 310 311 340 339 337 338 321 325 326 323 318 318 316 315 310 314 315 315 315 312 313 316 314 311 315 313 316 317 318
315 315 315 315 315 315 315 315 315 315 315 315 315 316 318 314 298 319 339 340 341 326 319 317 320 318 315 313 317 312 315 315 316 316 313 311 316 313 314 314 317 317 317 318 318
316 315 315 315 315 315 315 315 315 315 315 314 315 316 312 305 306 317 339 336 328 320 315 314 315 317 313 315 316 314 314 316 317 316 314 314 314 313 313 317 318 317 316 316 319
317 317 316 316 316 315 315 315 315 315 315 314 315 315 310 299 312 315 316 325 321 317 314 315 314 317 315 314 313 316 316 315 316 315 315 311 313 313 315 318 316 315 315 316 317
314 316 316 316 315 315 315 314 314 314 314 314 315 313 305 303 314 316 316 315 322 320 313 315 316 314 315 312 317 315 310 312 313 314 312 314 310 310 315 317 316 315 316 317 318
313 313 314 315 316 315 315 315 314 314 315 315 316 311 301 312 315 312 314 314 315 318 321 322 320 314 312 316 313 309 310 304 311 313 314 312 304 312 316 316 315 315 316 317 320
312 312 313 313 313 315 315 314 315 315 315 316 311 306 299 316 311 314 315 311 315 316 317 317 314 313 311 306 305 307 302 304 307 313 312 311 306 312 316 316 315 316 316 317 319
310 312 312 312 312 313 313 313 314 315 315 314 311 304 309 308 312 315 315 313 310 311 310 313 310 307 307 304 297 301 302 304 305 310 312 309 309 313 316 315 316 317 317 317 319
308 309 311 312 312 312 310 310 307 308 307 305 307 304 308 316 318 312 315 312 310 308 302 309 304 302 305 307 306 307 305 305 309 312 310 310 311 312 315 316 315 316 317 319 321
310 308 308 311 312 312 309 304 308 309 301 308 309 309 310 313 306 309 315 307 305 300 303 304 302 307 309 308 306 306 304 305 309 311 310 310 309 312 314 315 315 316 317 319 321
311 309 308 309 311 308 305 306 313 313 300 302 308 309 310 311 307 308 310 308 304 300 301 300 303 308 307 306 305 305 304 306 305 309 311 309 307 310 313 315 315 316 318 320 321
312 310 308 309 305 310 308 313 316 312 293 296 302 305 309 312 306 313 313 309 305 300 301 301 305 305 306 305 306 302 308 308 307 305 300 309 298 307 310 311 312 314 316 317 321
311 310 309 306 305 303 310 313 312 308 284 303 303 313 309 306 308 307 313 309 303 302 303 300 301 301 304 305 308 305 310 308 308 305 304 303 300 303 310 308 310 313 316 319 322
310 310 310 304 305 307 310 313 309 291 284 298 307 304 303 304 306 309 308 310 309 304 304 302 308 306 306 310 310 311 308 308 307 305 298 302 301 301 305 308 310 311 315 320 321
310 310 309 308 300 310 310 306 290 285 298 298 302 304 302 301 302 304 303 302 300 297 298 302 302 307 310 306 310 308 307 298 295 295 294 303 300 304 310 311 310 311 314 320 321
309 309 308 308 307 307 305 296 283 290 293 304 304 304 300 303 302 302 302 299 305 303 299 297 295 303 308 307 305 307 307 299 291 293 295 304 298 303 311 313 313 313 319 321 321
307 307 306 308 307 304 297 285 286 291 297 297 299 298 300 303 303 301 302 301 304 305 299 298 298 307 307 310 309 306 302 308 301 302 297 300 305 311 311 310 311 314 318 321 321
304 302 302 309 308 303 292 286 290 295 296 296 293 297 294 300 300 301 301 304 303 307 310 304 299 306 306 310 310 309 311 301 301 293 291 297 300 301 307 307 311 315 318 320 321
303 292 302 309 309 296 286 287 292 296 296 292 292 293 295 295 300 300 300 304 306 305 308 308 306 304 307 305 304 306 304 305 305 301 294 293 299 315 310 311 314 317 319 320 319
296 287 306 307 291 291 287 292 294 293 296 294 294 294 295 297 297 297 301 304 308 308 304 308 306 301 303 309 311 309 306 307 299 299 301 301 300 314 315 313 315 317 319 319 320
294 297 309 305 287 288 292 291 293 292 292 291 292 294 297 295 293 299 303 309 309 308 306 308 303 299 301 306 309 306 307 308 309 309 302 296 299 314 314 313 315 315 319 319 320
293 288 298 301 298 292 289 289 289 296 294 294 292 294 294 294 298 296 300 307 309 309 311 312 305 301 299 303 307 304 306 306 306 301 301 301 303 309 312 311 313 316 320 319 320
298 293 295 289 291 291 291 289 288 287 294 295 292 293 291 290 294 296 299 299 305 310 312 311 301 305 306 306 307 306 305 305 304 305 301 304 304 308 313 313 314 318 320 319 318
294 293 296 293 293 290 290 288 288 290 291 291 291 293 294 291 294 292 295 296 299 302 308 313 302 305 302 304 306 304 306 305 305 305 305 305 306 314 316 316 315 315 318 318 319
302 303 296 291 291 289 289 290 290 293 294 295 294 293 292 295 298 299 300 300 300 299 303 309 306 303 298 304 304 300 305 305 306 308 307 303 309 314 312 313 315 317 319 320 320

GFSSW_sfc_thetae_021.txt.gz
Theta_e
316 316 316 316 316 316 316 316 316 316 317 317 317 318 318 320 319 313 310 313 317 332 337 327 326 324 322 319 321 320 304 302 304 305 307 309 308 314 317 313 315 313 312 317 319
316 316 316 316 316 316 315 315 316 316 316 316 317 317 318 319 311 306 317 330 332 338 322 322 319 321 316 316 316 311 303 305 311 311 309 309 308 311 312 311 314 312 316 319 319
316 317 317 317 315 316 315 315 315 316 316 316 316 316 318 317 307 305 340 336 333 337 319 317 321 320 314 316 314 311 305 310 311 313 313 309 308 310 310 307 312 309 312 314 315
316 316 317 317 315 316 316 315 315 315 315 315 315 316 317 312 292 313 341 341 340 329 317 312 312 311 312 310 315 308 312 312 313 315 313 309 312 310 311 309 313 313 315 313 312
313 314 315 317 317 316 316 316 315 314 314 315 315 316 311 302 302 316 341 338 330 326 314 310 306 307 305 311 313 310 311 314 315 314 310 312 310 310 309 314 314 314 314 313 311
313 313 313 315 316 316 316 315 315 315 315 315 315 316 307 295 308 312 311 319 319 316 312 310 308 309 307 310 310 313 313 313 314 313 311 310 311 309 311 315 312 312 310 310 311
311 313 313 314 314 315 316 315 315 315 315 315 316 312 302 298 311 312 310 307 311 316 311 312 312 308 307 303 310 310 306 309 311 311 308 312 306 306 312 313 311 311 310 311 311
310 311 312 312 312 313 314 314 314 315 315 316 316 309 297 307 309 307 308 307 310 313 317 316 313 308 307 307 307 303 305 300 307 309 310 308 300 308 312 311 310 312 312 312 311
311 310 310 310 312 312 313 313 313 313 314 316 309 304 294 311 304 308 309 306 309 310 316 320 315 306 306 302 299 301 296 299 303 310 309 307 303 309 312 310 310 310 311 312 311
312 311 310 309 310 312 312 312 311 312 312 313 310 299 302 302 307 310 310 310 308 308 306 305 304 299 299 299 292 295 296 300 301 306 307 306 304 308 311 310 309 310 311 312 312
312 312 311 310 309 310 308 303 301 302 305 300 300 299 305 309 313 311 311 309 307 303 298 304 297 296 297 300 302 301 300 300 304 308 305 305 305 309 311 310 309 309 310 310 311
311 312 311 311 310 309 305 297 301 302 296 305 303 304 306 308 303 308 312 304 301 295 299 296 293 299 305 303 303 301 299 299 304 308 307 306 305 309 310 309 309 309 309 309 312
311 312 312 311 309 304 300 300 306 304 295 300 304 303 305 307 302 303 308 305 300 296 296 294 297 302 304 302 301 301 298 299 300 305 307 304 301 305 310 310 311 311 309 313 312
311 311 311 311 302 301 299 307 309 307 289 291 297 301 305 307 302 310 310 305 301 297 297 296 301 301 302 300 302 297 305 304 303 301 294 304 291 300 304 305 308 309 306 311 312
310 310 311 309 299 295 302 306 308 306 277 296 298 308 304 302 306 306 311 306 298 299 298 295 297 297 298 300 304 300 306 304 304 300 297 298 292 296 303 303 304 305 307 311 313
310 310 310 305 303 299 303 308 303 287 277 293 302 299 298 301 304 308 305 308 305 300 300 299 303 301 300 303 305 307 304 303 302 301 293 296 296 295 299 304 305 308 312 313 313
310 309 308 306 298 305 304 301 285 280 292 292 297 299 298 297 299 302 300 298 295 292 293 298 298 302 303 298 301 304 298 291 288 290 287 299 295 295 303 306 307 307 311 312 314
309 309 307 306 306 305 300 292 279 286 287 294 293 295 293 298 297 299 299 295 299 297 293 291 289 298 302 299 296 297 298 292 284 286 290 299 293 298 307 308 308 314 313 313 313
307 302 302 304 306 304 294 283 282 286 290 291 291 289 291 296 297 297 296 296 298 299 292 291 292 302 302 304 302 298 296 301 294 295 291 294 300 305 306 305 307 312 313 311 312
301 301 298 305 306 300 287 283 286 291 292 292 285 289 285 289 292 294 295 299 299 301 301 296 291 300 302 303 303 301 303 296 292 286 284 292 295 296 301 302 306 310 311 311 312
301 292 299 304 305 293 283 285 289 293 294 289 287 286 287 287 290 291 294 300 302 301 301 299 296 297 301 297 296 298 298 299 296 293 287 286 291 302 303 304 308 310 312 311 311
297 287 302 305 289 289 285 288 293 291 294 291 291 289 287 290 289 290 293 298 304 303 298 300 296 292 297 302 303 302 299 298 294 291 293 291 293 306 306 309 311 312 313 311 311
293 292 305 302 285 284 288 289 292 291 291 290 290 292 291 289 287 292 295 301 303 300 299 300 295 289 293 298 301 298 303 301 300 296 293 290 292 308 307 307 313 311 312 313 311
293 285 294 297 295 288 287 286 286 292 291 292 290 293 290 287 291 289 292 299 301 302 309 306 296 293 290 295 299 296 301 302 299 292 294 296 297 303 305 305 307 311 312 312 312
293 289 293 284 287 288 288 288 286 285 290 290 289 290 289 285 287 288 293 295 299 304 297 300 294 297 298 301 301 301 302 302 299 299 296 298 299 303 305 305 307 312 312 312 311
289 289 292 289 290 288 288 286 286 288 289 288 288 290 292 288 289 288 291 292 291 295 293 296 295 297 296 301 300 299 302 303 302 301 300 301 300 307 311 308 308 312 313 312 312
298 299 293 289 287 286 287 288 288 291 292 293 292 290 290 292 295 295 294 294 294 291 291 292 296 294 291 297 298 294 301 302 303 303 301 297 300 305 306 309 308 310 314 313 313

GFSSW_sfc_thetae_024.txt.gz
Theta_e
317 317 316 317 317 316 316 316 316 316 317 317 317 317 317 318 318 309 303 310 314 332 337 327 328 323 321 317 318 315 302 300 302 303 306 310 304 311 314 311 312 312 313 316 317
316 317 317 317 317 317 315 315 315 316 316 316 317 317 317 318 311 305 314 327 331 337 318 319 319 319 312 313 314 309 301 305 311 309 307 309 306 307 308 308 311 312 316 317 316
314 315 316 317 317 316 316 315 315 315 315 315 315 316 317 316 304 303 330 328 328 335 315 315 320 317 310 311 312 309 305 311 311 312 312 311 310 309 307 304 308 309 312 314 313
313 314 313 314 315 317 317 316 315 315 315 315 315 316 317 311 290 306 339 340 339 327 318 310 308 306 307 307 313 305 311 313 312 314 312 309 313 309 309 308 312 313 315 314 312
311 313 313 313 313 315 316 316 315 315 315 315 315 316 309 302 298 308 333 333 331 320 314 309 304 303 301 307 311 308 311 314 314 313 312 312 310 309 309 312 312 313 313 313 312
310 309 311 312 313 313 315 315 316 316 315 315 315 316 305 290 304 308 309 308 314 317 314 310 306 307 301 303 304 309 311 312 313 312 312 309 310 309 311 313 310 312 311 311 311
311 311 309 310 311 312 313 313 313 314 314 314 316 312 303 298 306 308 304 303 306 314 310 314 312 306 303 301 305 305 301 305 308 309 308 310 305 306 311 311 309 308 310 310 311
313 312 311 310 309 310 311 313 313 313 313 313 315 309 298 308 308 303 303 301 305 308 310 313 310 304 301 303 303 300 298 295 303 306 308 306 300 308 310 309 308 309 309 308 309
313 313 312 312 311 309 310 311 311 312 312 312 308 304 294 309 303 305 306 302 305 306 307 311 309 303 302 298 294 296 293 295 299 306 306 304 302 307 310 308 308 308 309 309 309
312 312 312 312 312 311 310 310 310 310 308 310 309 299 301 300 305 306 305 305 303 305 303 304 305 301 297 294 290 293 292 296 297 303 304 302 302 306 310 309 307 308 308 309 309
311 311 311 312 312 311 306 299 297 300 302 298 298 297 303 306 310 307 308 303 304 301 295 300 297 293 299 300 299 299 296 296 300 305 303 302 303 306 308 306 305 306 307 308 308
310 310 310 311 312 311 303 295 296 299 292 301 303 302 304 305 300 305 309 301 298 294 298 295 291 298 300 299 297 297 296 296 301 304 301 302 302 306 308 308 308 308 307 307 309
311 311 311 311 311 302 297 299 304 302 293 297 301 301 302 304 299 301 306 303 297 294 295 292 296 300 298 299 296 296 295 297 297 301 302 301 299 303 308 310 309 309 308 310 310
310 310 310 311 301 297 295 303 302 305 286 291 296 300 303 303 299 306 308 304 299 293 295 294 299 299 297 295 299 294 301 301 300 297 291 301 290 298 303 304 305 306 305 308 310
310 310 310 310 299 295 297 299 301 300 275 293 294 306 303 299 303 303 309 304 297 296 295 292 295 295 294 295 299 297 302 301 301 298 293 297 291 295 300 300 303 304 306 307 310
309 309 310 305 302 302 304 302 297 284 276 289 295 293 295 298 299 306 303 305 304 298 297 295 300 298 297 300 300 303 300 299 299 296 289 295 293 296 297 301 302 306 306 309 310
309 309 308 306 296 301 302 295 284 279 291 288 289 291 292 294 295 298 298 296 293 290 290 295 295 299 300 296 299 300 294 287 284 287 287 296 294 297 302 304 304 307 308 309 311
308 308 305 305 302 302 297 289 279 285 286 292 291 290 290 291 292 296 296 293 296 295 291 289 288 296 300 297 294 295 295 288 282 283 288 296 291 297 304 306 307 310 310 311 312
306 298 297 300 304 299 294 282 280 285 289 288 289 286 286 289 290 292 294 294 296 297 289 289 290 300 301 301 298 293 290 296 290 292 288 291 296 303 304 307 309 308 310 310 310
300 294 295 301 302 300 287 283 285 290 290 290 283 287 282 285 286 288 290 297 297 299 298 293 288 298 299 301 300 296 298 290 288 284 282 289 292 294 298 304 307 307 307 309 309
295 289 297 301 303 293 280 282 287 292 293 288 285 284 285 285 287 286 289 296 298 299 300 296 291 294 297 294 293 292 293 293 294 291 286 284 291 299 299 302 307 308 309 309 309
291 283 301 304 290 289 284 287 292 290 293 291 290 289 287 288 286 287 288 293 298 299 294 297 290 288 292 297 300 297 293 294 291 288 291 290 291 302 302 305 309 309 310 310 311
289 288 299 302 283 284 288 288 290 289 290 289 288 291 292 288 284 289 292 297 297 296 295 296 292 285 288 292 297 294 296 297 295 293 290 290 291 303 305 308 310 309 309 310 310
289 282 291 295 291 287 286 286 285 292 289 290 288 290 288 287 290 286 288 293 296 296 301 297 292 290 287 292 295 293 295 297 297 291 291 295 294 300 302 306 307 309 309 310 310
288 284 291 282 284 285 284 286 284 284 290 290 286 286 287 284 287 286 289 291 295 298 294 290 288 293 294 296 297 297 296 297 298 297 295 295 296 300 302 307 309 310 309 309 309
282 288 292 286 287 285 285 284 286 287 288 287 286 290 290 286 288 287 289 290 289 294 290 290 286 293 292 296 296 294 297 298 300 299 297 299 297 304 306 309 310 310 310 309 310
293 293 291 287 283 279 282 287 288 289 291 292 291 289 287 290 294 296 295 295 293 290 288 287 288 288 288 294 294 290 295 297 300 302 299 295 298 303 303 304 309 309 310 310 311

GFSSW_sfc_thetae_030.txt.gz
Theta_e
314 314 314 314 314 314 316 317 317 317 317 317 317 317 317 317 317 305 300 308 313 332 335 330 322 321 317 313 314 310 300 296 300 301 303 304 303 308 310 308 307 311 309 311 314
311 311 312 313 314 314 314 314 315 316 316 317 317 316 316 317 309 303 312 325 330 336 319 320 317 317 310 310 311 307 299 300 306 306 305 305 306 307 308 308 309 308 311 314 312
313 312 312 311 311 312 313 313 313 314 315 316 316 316 316 315 299 297 324 323 330 332 313 321 318 314 307 307 308 306 302 307 307 309 308 307 309 310 307 305 309 307 312 310 310
314 313 313 313 312 311 310 311 313 314 314 314 314 315 316 308 287 304 334 337 339 324 309 308 313 308 304 304 309 302 308 310 308 310 307 308 310 310 311 310 315 315 312 310 309
312 313 313 313 313 312 312 311 311 312 313 313 313 314 309 298 294 303 323 315 320 317 307 305 304 307 303 305 306 304 307 309 310 309 309 312 309 310 310 315 316 314 310 311 310
312 312 311 312 312 312 313 312 312 311 310 312 313 313 304 294 305 302 308 303 303 311 310 306 304 305 299 298 300 304 307 307 306 308 310 308 308 307 310 315 312 311 309 310 310
312 311 311 311 311 311 312 312 312 312 312 311 311 308 300 297 309 311 309 303 301 302 306 310 309 304 301 297 300 299 295 298 300 302 302 307 301 303 310 311 309 309 308 309 311
311 312 311 311 311 311 311 312 312 312 312 312 311 305 294 307 310 307 309 306 308 305 303 308 311 303 298 299 299 295 294 291 297 302 302 303 294 303 308 306 307 307 308 307 309
310 311 311 311 311 311 311 311 311 312 312 311 303 300 291 308 304 308 307 303 304 304 300 304 307 301 298 295 290 291 288 289 292 300 299 299 296 303 306 305 305 307 307 307 308
310 311 311 310 310 311 311 310 309 307 306 306 304 294 297 295 304 305 307 305 300 298 297 296 298 295 292 291 285 287 288 291 291 297 296 295 295 301 304 304 304 305 306 307 306
310 310 311 311 310 310 307 297 295 294 297 292 293 294 296 303 307 304 304 302 300 295 289 293 290 291 293 295 294 294 291 290 296 299 296 295 296 300 303 302 302 303 304 305 305
310 310 309 310 310 310 304 291 296 297 289 297 298 298 300 302 296 300 303 296 294 290 292 290 288 294 298 297 295 294 291 291 296 299 296 296 296 300 302 302 303 304 305 305 304
309 309 309 309 309 300 293 296 300 300 288 293 297 296 297 300 295 296 302 297 293 289 290 288 292 296 297 296 295 295 293 293 293 296 297 295 293 297 302 302 304 306 307 306 306
309 310 310 309 300 295 296 299 301 303 284 287 292 296 298 297 293 301 303 298 295 289 290 289 294 294 295 295 297 291 298 298 296 292 286 295 285 294 298 300 302 303 302 304 306
309 309 310 309 300 297 298 300 301 295 272 288 293 302 299 293 295 296 302 298 294 292 290 287 290 291 291 294 299 294 299 298 295 290 287 290 287 292 296 297 300 302 303 303 306
309 309 308 304 302 299 301 300 295 283 274 286 292 290 289 295 295 298 296 298 300 293 293 291 297 294 294 297 299 299 295 293 292 289 282 290 289 289 293 297 300 302 304 305 307
309 309 306 304 295 298 298 293 282 275 288 285 286 289 289 288 291 294 293 289 289 286 286 290 290 293 296 292 295 295 288 280 279 280 281 291 289 292 297 300 302 303 302 305 308
307 307 302 303 299 300 294 285 275 282 283 290 288 288 285 288 287 289 290 288 291 290 288 286 283 292 296 292 290 291 289 283 278 279 285 292 287 292 301 305 304 304 304 306 307
305 295 295 300 300 301 292 278 277 283 287 286 287 283 284 287 287 287 286 289 291 293 285 286 287 295 297 297 296 290 288 291 286 288 284 288 291 297 301 301 303 303 305 305 306
297 296 292 299 300 298 287 279 282 288 288 287 281 285 280 283 284 285 285 291 290 293 294 289 284 294 295 297 296 293 295 285 285 281 279 285 288 291 296 300 303 303 303 304 306
290 286 292 303 301 292 277 279 285 290 290 285 284 283 283 283 286 283 284 289 292 291 293 290 287 288 293 291 289 287 289 287 288 285 281 281 286 296 298 300 302 303 304 305 306
291 279 294 304 289 288 279 286 290 288 290 288 288 286 284 286 285 284 284 287 294 293 286 290 286 284 288 292 297 294 288 288 286 282 285 286 287 298 300 301 303 304 305 305 307
289 286 296 297 282 280 286 287 289 287 288 287 286 288 287 284 282 286 288 294 293 292 288 292 285 281 284 288 291 291 291 291 288 286 286 283 286 299 300 301 303 303 305 306 307
286 280 285 291 288 286 283 283 284 290 288 288 286 287 284 283 286 284 286 291 293 292 296 295 285 285 282 286 289 288 291 292 287 282 286 289 289 296 300 300 301 304 305 305 307
284 280 287 282 282 284 286 284 283 284 289 289 285 285 285 282 284 285 288 290 293 293 293 291 281 286 288 291 292 290 291 292 289 290 286 290 293 296 299 301 303 305 305 305 306
281 288 289 285 287 285 282 284 284 285 288 286 285 287 286 282 285 284 288 289 288 291 291 291 281 285 284 291 292 291 291 292 292 292 291 291 291 299 301 304 305 306 306 306 307
291 296 290 287 285 282 279 284 285 286 288 290 289 287 285 287 290 291 292 291 291 289 288 288 284 281 279 286 288 286 291 291 292 294 293 290 295 298 300 303 304 305 308 308 309

GFSSW_sfc_thetae_033.txt.gz
Theta_e
313 313 312 311 312 313 314 314 314 315 315 316 317 317 317 318 317 307 300 309 313 327 332 326 320 322 322 318 320 317 307 302 303 304 307 314 313 315 317 316 316 318 318 320 320
313 313 312 313 313 311 311 312 313 313 314 315 316 316 316 317 310 304 313 323 329 335 323 316 314 319 315 315 317 314 307 305 309 310 310 312 313 314 314 315 316 317 319 319 320
314 313 313 314 314 313 313 312 311 312 312 313 314 314 315 316 299 299 329 328 326 331 316 315 317 317 313 315 314 313 307 311 311 313 313 312 313 316 313 311 315 315 319 322 321
312 312 312 312 313 313 313 312 312 313 312 312 313 313 315 310 292 306 325 322 336 321 311 308 315 312 309 309 314 309 313 314 314 315 313 311 315 313 315 315 319 320 321 321 320
312 312 312 311 311 311 312 312 311 312 312 312 311 312 309 301 299 306 317 315 314 319 308 307 310 309 305 309 311 309 311 314 315 315 315 315 312 313 313 317 320 321 321 319 319
311 311 311 311 310 311 310 311 312 311 311 311 311 311 303 291 309 309 311 309 304 313 310 307 305 311 308 308 308 311 310 311 313 313 314 311 311 311 312 316 315 316 317 318 319
310 310 311 311 310 310 310 310 311 312 312 313 312 307 299 296 309 311 310 308 307 304 302 308 310 307 307 303 308 307 304 307 307 309 307 308 303 304 310 312 312 314 315 317 319
308 311 311 311 311 311 311 311 311 311 313 312 312 306 294 306 310 307 309 308 310 309 306 305 313 308 305 306 303 301 301 297 304 304 305 305 298 306 310 310 310 312 314 316 318
311 311 310 310 311 311 311 311 310 311 311 311 306 300 293 307 302 308 309 304 306 308 307 305 306 306 304 300 298 299 295 296 299 303 303 304 300 306 310 309 309 311 312 314 316
310 311 311 310 310 310 311 310 309 308 307 307 304 295 297 296 304 306 310 307 303 303 301 300 301 299 299 298 291 293 293 296 296 302 301 300 301 305 308 308 309 311 313 314 316
309 310 310 311 310 310 308 302 300 298 299 295 295 295 297 302 305 302 306 305 303 299 294 297 294 293 295 298 300 300 298 297 300 302 300 301 302 304 308 308 309 310 312 314 316
309 309 310 310 310 308 303 296 297 297 290 298 297 298 301 303 295 299 304 298 297 292 296 293 291 297 300 299 297 296 295 295 299 302 301 301 301 305 307 307 309 310 311 314 316
310 309 309 310 309 303 300 298 304 303 291 294 298 297 298 300 295 296 301 299 295 292 293 292 295 298 297 297 295 295 294 295 295 300 302 300 299 302 306 308 309 312 314 316 316
310 310 310 309 302 301 298 303 305 304 286 288 293 297 299 299 294 302 301 299 296 292 293 294 298 295 295 294 297 293 298 297 296 295 293 300 291 300 302 303 308 312 314 315 314
309 309 310 308 301 298 300 305 305 299 273 289 294 304 300 295 297 298 303 299 294 294 294 291 293 293 293 294 298 295 301 298 297 296 296 296 292 298 303 301 304 309 314 315 315
309 308 308 304 302 303 305 305 301 284 273 286 293 291 292 294 295 297 297 300 300 296 295 295 298 296 296 298 299 301 299 299 299 297 289 295 293 295 299 301 305 310 313 313 315
308 307 305 304 297 304 304 299 283 276 287 285 287 290 289 289 291 292 293 291 290 288 289 293 293 297 298 295 299 300 296 289 287 288 288 297 293 295 303 306 308 310 313 314 316
307 304 302 304 305 304 300 289 275 281 283 290 289 289 286 289 288 288 289 290 292 293 292 289 286 294 297 295 294 296 296 291 285 287 289 295 290 294 306 308 310 312 314 315 316
304 302 301 303 303 303 293 279 279 284 287 285 287 284 284 287 287 286 287 290 293 292 287 290 290 297 297 299 298 295 293 299 293 294 291 293 297 304 307 308 310 310 312 314 316
298 297 298 304 305 299 287 281 284 289 289 288 282 285 281 284 284 285 285 290 290 294 296 293 288 296 297 298 299 298 300 290 293 285 284 291 294 295 303 306 310 311 312 314 316
297 293 298 304 303 293 282 283 286 291 291 286 284 284 284 283 286 285 284 288 291 292 295 295 293 293 296 293 293 294 294 295 295 293 287 285 291 307 307 309 310 313 315 314 315
296 288 299 305 288 289 285 287 290 289 292 289 289 287 285 286 285 285 285 288 293 292 289 293 293 290 292 298 300 297 296 296 290 289 292 292 292 305 309 309 312 313 314 315 317
290 291 300 300 283 284 287 287 289 288 289 288 287 288 289 285 282 286 288 293 294 291 288 292 291 287 290 294 297 295 296 297 298 297 291 289 292 305 307 309 311 313 313 314 316
292 286 292 295 291 286 283 285 285 291 290 290 289 290 287 286 288 284 286 290 294 292 295 294 290 289 288 290 295 292 294 296 296 292 292 292 294 302 305 307 310 312 314 314 316
292 288 291 283 286 285 285 285 284 285 290 291 288 287 287 284 285 285 288 290 293 295 294 291 285 289 291 291 293 294 294 294 293 295 292 294 295 301 305 306 310 314 314 314 315
291 290 292 288 288 285 285 285 285 286 286 286 286 288 288 285 287 285 288 289 289 292 292 292 286 289 288 293 293 292 295 295 295 295 295 297 297 305 307 309 311 313 313 314 315
295 298 292 288 286 284 285 285 285 287 289 290 289 288 287 289 293 293 293 293 292 289 290 290 288 287 287 290 291 289 294 296 296 297 297 294 299 304 305 307 310 315 314 315 316

GFSSW_sfc_thetae_036.txt.gz
Theta_e
315 314 314 314 314 314 313 312 312 313 313 314 315 316 316 317 317 314 306 312 316 331 327 326 323 323 325 321 323 322 310 306 308 309 311 317 316 319 322 319 320 323 323 325 327
313 313 313 314 314 314 314 314 313 313 313 313 314 315 315 316 314 309 320 323 329 331 312 318 315 318 319 320 320 316 310 309 314 315 314 316 316 317 317 317 318 320 325 326 328
313 313 312 312 312 313 313 313 313 313 314 313 312 314 314 315 307 306 322 326 328 327 311 317 316 317 314 318 318 317 311 316 316 317 318 316 316 319 316 314 318 317 321 324 326
312 311 312 312 311 312 311 311 312 313 312 313 313 312 314 312 297 316 320 322 327 331 312 313 312 310 310 310 317 313 317 317 318 319 318 316 319 316 318 318 322 322 323 323 324
310 311 311 312 311 311 312 312 311 311 312 312 312 312 310 304 303 312 319 322 313 321 312 311 309 311 309 311 313 313 315 317 319 319 318 319 316 316 317 320 322 322 321 321 322
309 309 310 311 312 311 312 312 312 312 312 312 312 312 306 296 309 313 314 313 312 312 316 313 310 314 314 313 311 314 314 315 317 318 318 315 315 317 317 320 319 318 318 319 319
310 310 311 311 311 311 311 312 312 312 312 313 312 310 304 300 310 312 311 310 312 309 309 314 313 311 314 310 315 313 309 312 314 315 314 317 311 311 316 317 316 315 317 318 318
311 311 311 311 311 311 311 311 311 311 312 313 313 308 299 308 311 309 311 310 312 312 309 310 312 310 309 312 309 307 309 304 311 312 313 311 304 313 316 315 314 315 316 316 318
310 310 311 311 311 311 311 311 311 311 312 313 310 306 297 309 303 308 310 306 309 311 311 309 308 306 308 303 303 305 300 303 305 311 310 308 305 312 315 314 313 315 317 316 317
311 310 310 310 311 311 311 311 310 309 310 311 308 299 302 296 305 308 310 310 306 307 306 304 303 301 303 302 297 300 301 303 304 309 307 306 306 311 313 313 314 315 316 316 317
311 311 311 311 311 310 309 307 303 302 303 299 298 299 299 303 306 304 308 307 307 304 299 302 297 296 300 303 305 305 304 304 306 310 307 307 307 310 313 314 314 315 316 316 319
310 310 311 311 310 310 308 300 300 302 294 300 300 299 301 303 296 301 306 300 302 296 300 299 295 301 303 304 302 303 302 303 307 309 309 306 305 311 313 314 315 314 315 317 320
310 310 310 311 310 308 305 302 307 307 294 296 299 298 300 302 297 298 302 300 299 297 298 297 298 302 301 301 300 301 300 302 302 306 308 305 302 307 312 314 315 315 316 316 320
310 310 310 309 305 306 302 307 308 308 289 290 295 299 302 302 297 305 306 300 298 296 298 298 303 300 299 298 301 297 303 301 300 299 296 305 296 305 309 310 313 314 315 317 321
310 309 309 307 304 301 304 309 308 304 277 292 297 306 302 298 299 301 307 301 294 297 298 296 298 299 298 299 301 299 302 302 301 299 299 300 297 303 309 307 310 313 315 318 322
310 309 308 307 305 305 308 308 305 287 277 288 295 294 294 296 297 299 300 304 301 295 299 298 303 301 301 302 302 303 300 302 302 300 293 298 298 299 305 308 311 314 314 319 322
308 307 307 309 300 307 308 302 286 280 289 286 289 293 292 291 292 295 294 295 292 287 290 296 297 301 302 299 302 301 298 293 291 292 292 302 299 301 309 310 311 311 315 321 323
307 304 304 308 308 308 303 293 279 283 285 291 291 291 287 291 290 290 290 291 297 294 292 290 290 297 301 299 298 298 299 293 288 291 295 302 296 302 310 312 314 314 315 321 323
304 309 307 309 310 307 298 283 283 286 289 288 289 286 286 289 289 289 288 286 292 296 291 291 292 301 301 302 302 298 297 303 299 301 295 300 303 305 308 310 311 313 314 319 323
304 305 303 310 310 306 293 284 287 291 291 291 284 287 284 286 286 287 287 291 289 296 299 295 290 300 300 302 303 302 304 296 298 291 290 296 297 297 305 308 310 313 316 320 323
304 299 304 310 305 294 286 287 290 293 293 289 287 286 286 286 287 287 286 290 291 292 297 297 294 297 300 297 297 298 298 300 301 298 293 292 295 305 308 310 312 316 318 322 323
301 294 304 310 294 294 287 288 292 292 294 292 292 289 288 288 287 287 286 289 294 294 290 296 296 293 296 301 303 302 300 301 295 294 297 297 295 308 312 314 316 316 319 322 323
297 297 306 305 288 288 289 289 291 291 290 291 290 291 292 289 285 287 289 294 295 293 290 293 294 289 293 298 301 299 301 302 302 303 296 293 295 307 312 313 316 318 320 321 323
298 292 299 300 296 287 285 288 288 293 291 292 292 293 291 289 291 287 288 291 295 295 295 295 291 293 291 294 298 296 298 301 300 296 297 296 297 304 310 312 315 319 320 321 322
298 293 294 289 290 288 289 287 287 287 292 293 290 291 288 286 288 288 290 291 293 295 295 295 289 294 296 296 296 298 297 298 298 299 296 298 298 301 309 311 314 317 320 320 322
295 292 295 290 290 289 289 289 288 289 288 288 289 290 289 286 288 287 290 292 289 290 293 296 290 293 292 296 296 295 298 299 299 300 300 300 299 305 309 311 310 316 319 319 321
300 301 293 290 289 287 289 288 287 288 291 292 291 290 290 291 294 295 295 296 294 291 290 292 291 291 289 295 295 292 297 298 299 301 301 297 302 307 307 309 310 314 318 319 322

GFSSW_sfc_thetae_039.txt.gz
Theta_e
314 314 314 313 313 314 314 315 315 314 314 314 314 314 315 316 316 315 313 317 319 330 329 325 325 326 326 320 320 321 311 308 310 310 312 318 316 322 323 321 321 323 323 326 330
313 313 313 313 313 313 313 313 313 314 314 314 314 314 314 315 312 310 321 325 332 333 314 319 316 318 319 321 320 316 312 311 316 316 315 318 318 319 319 318 320 321 324 326 328
311 312 312 313 313 312 312 312 312 313 313 313 313 314 314 314 308 309 325 328 329 326 314 315 320 318 313 318 319 318 312 317 317 319 319 318 318 320 318 316 319 319 322 324 325
310 311 311 312 312 313 312 312 312 313 312 313 313 313 314 313 299 318 320 322 326 318 314 310 311 312 311 311 317 314 318 319 319 320 319 317 320 318 319 319 323 324 325 325 324
311 310 311 312 312 312 312 312 312 312 312 313 313 313 311 304 305 318 322 323 318 321 316 313 309 311 311 313 315 313 315 318 320 320 320 320 317 318 319 323 325 325 324 323 323
311 310 311 312 312 313 313 313 313 313 312 312 313 313 308 298 313 314 314 315 315 315 318 315 312 315 314 314 313 316 316 316 317 318 319 317 318 319 320 323 323 323 322 322 322
310 310 311 311 312 312 312 312 312 312 312 313 313 312 305 302 311 313 313 311 313 312 310 315 317 314 315 312 317 316 311 314 316 316 315 317 313 315 321 322 321 321 320 321 321
312 311 310 311 311 312 312 313 312 312 313 314 314 311 301 310 312 309 310 309 312 313 313 314 317 315 313 315 313 310 312 306 313 315 315 315 307 316 321 320 319 319 319 319 321
312 312 312 311 311 311 312 312 312 313 313 313 312 308 300 312 306 309 310 305 309 311 313 313 311 309 310 306 305 308 303 305 307 314 314 312 309 315 318 318 317 318 318 319 320
311 311 312 311 311 312 312 311 313 311 312 314 311 302 305 300 304 308 311 310 307 307 307 307 306 303 304 304 297 300 302 304 305 311 313 310 310 314 316 316 316 317 317 318 320
311 311 311 311 312 311 310 310 306 305 308 302 301 301 302 305 307 304 307 307 308 305 300 305 299 297 300 303 305 305 305 304 308 312 310 309 311 313 314 315 315 316 317 319 321
311 311 310 311 311 311 310 304 303 304 296 302 301 301 303 304 297 301 306 300 300 298 301 301 296 302 304 304 303 304 303 304 308 312 310 309 309 312 314 314 315 317 318 320 321
311 310 310 311 310 309 307 305 309 308 297 298 301 300 301 303 298 298 302 300 297 298 299 297 301 304 302 301 301 302 302 303 304 309 309 309 306 309 313 315 315 316 319 320 320
310 311 310 310 305 308 304 309 310 309 291 292 297 300 302 303 299 305 305 300 297 294 299 299 302 302 301 300 302 298 305 305 304 303 299 308 297 306 310 311 313 316 319 319 320
310 310 309 308 306 304 306 310 310 306 279 294 297 308 303 299 300 302 308 302 294 295 296 295 299 299 299 300 303 301 306 305 304 302 301 301 298 302 308 307 311 315 318 320 319
309 309 308 309 309 308 310 309 305 288 279 290 296 295 296 298 298 301 301 305 303 296 297 298 304 303 301 304 304 305 303 304 305 302 294 300 299 300 303 307 311 315 318 319 319
309 307 307 309 303 310 309 302 286 282 292 288 290 293 292 292 293 296 294 295 294 290 289 294 297 302 304 300 304 304 300 293 293 292 294 302 299 302 308 311 313 315 317 318 323
307 306 308 308 312 309 304 293 281 287 287 293 291 291 288 291 292 294 292 290 296 295 293 288 287 298 303 301 300 301 300 294 288 291 294 302 297 302 313 315 317 316 316 322 325
305 310 308 310 311 310 297 285 285 288 291 289 290 287 287 290 291 290 290 291 294 295 290 290 289 301 302 304 303 300 298 304 298 301 297 301 306 311 313 313 314 315 316 319 325
308 307 307 311 312 308 293 286 290 293 293 292 286 289 284 287 288 290 289 294 292 293 295 296 290 296 301 303 303 302 306 296 300 292 292 298 301 303 307 310 313 313 314 318 326
307 300 307 313 312 301 289 289 292 295 296 291 289 288 289 288 289 287 288 292 294 294 296 296 293 296 299 299 297 299 299 300 302 300 294 293 299 309 309 311 312 313 316 319 325
305 296 307 311 296 297 291 292 294 293 296 293 294 292 290 290 289 288 288 291 295 296 292 297 294 292 296 301 304 302 300 302 298 297 300 300 299 309 311 313 314 316 318 322 326
300 300 308 306 291 292 293 292 294 292 293 292 291 294 295 291 287 288 291 297 295 294 292 296 293 288 293 299 302 299 302 304 304 305 299 296 300 310 313 314 317 318 320 325 325
301 295 300 303 299 291 290 290 290 295 293 294 292 294 293 290 293 290 291 294 296 295 297 296 293 292 289 295 299 297 300 303 303 299 300 300 300 304 311 314 317 320 323 324 324
302 297 297 290 293 292 292 292 290 289 294 295 292 292 291 288 290 289 291 293 295 296 296 293 291 293 294 296 299 299 299 300 301 302 300 303 302 305 313 316 316 321 322 322 322
298 296 298 294 294 291 292 291 290 290 289 290 290 292 292 288 289 289 291 292 290 293 291 292 291 295 290 293 297 297 300 301 301 303 304 304 303 308 311 312 313 318 320 321 322
304 302 295 293 292 290 290 290 290 291 293 294 292 292 290 293 295 296 298 298 295 292 292 292 293 293 287 293 295 292 299 301 302 304 304 300 303 309 308 309 311 314 319 321 323

GFSSW_sfc_thetae_042.txt.gz
Theta_e
313 313 313 313 314 313 314 314 314 314 315 315 315 315 315 315 315 311 308 315 320 331 326 326 329 326 329 325 323 319 306 304 307 309 311 318 315 320 322 319 321 322 321 324 327
312 312 312 312 313 314 313 313 313 314 314 314 314 314 315 316 309 308 317 332 333 334 314 314 315 320 318 318 319 312 306 307 313 314 314 317 317 318 318 318 318 320 324 326 327
311 311 312 312 312 313 313 313 313 313 313 313 314 314 315 314 306 307 326 333 334 328 313 315 316 318 313 316 316 314 308 312 314 317 318 316 316 319 317 314 318 318 321 324 326
312 311 311 312 313 313 313 313 313 313 314 313 313 314 315 311 297 313 326 324 324 315 312 310 309 310 312 309 314 311 315 315 317 319 318 316 319 317 318 318 323 324 325 324 324
311 311 311 312 312 312 313 313 313 313 313 313 313 313 310 302 303 316 329 326 316 314 309 307 306 307 305 311 313 310 312 315 318 319 318 319 317 317 318 322 324 325 325 324 325
312 312 311 311 311 312 313 313 313 313 312 313 313 313 306 295 310 313 315 314 314 313 313 314 310 311 308 308 310 313 313 313 315 316 317 315 315 317 319 323 322 323 323 324 324
313 313 312 312 312 312 313 313 313 313 313 313 314 311 303 300 310 311 311 311 313 313 310 314 317 311 312 307 313 313 310 313 314 314 314 317 312 313 319 321 319 321 323 324 325
313 312 312 312 312 313 314 313 313 313 313 314 314 310 299 310 312 310 311 309 310 310 310 312 313 310 310 312 310 307 309 304 311 314 315 314 306 315 319 318 318 320 321 323 324
312 312 311 311 311 312 313 312 313 314 314 314 310 307 300 314 307 310 309 305 307 308 310 311 310 306 307 304 302 305 301 302 306 313 312 312 308 315 319 318 318 319 319 320 321
312 311 312 312 311 312 311 311 313 313 313 313 311 302 306 303 306 308 311 309 304 304 303 305 304 300 301 300 295 298 299 302 303 309 311 309 309 314 317 317 317 318 319 319 320
311 311 311 311 312 311 309 310 303 302 308 303 303 302 303 307 308 304 306 304 306 305 297 302 297 295 298 301 302 303 302 301 306 309 308 308 308 312 316 316 316 317 317 319 321
310 310 311 311 311 311 309 304 303 304 295 302 301 301 303 303 297 301 306 298 298 296 300 297 295 301 302 302 301 300 300 301 305 308 307 307 308 313 315 315 316 317 317 318 321
310 311 311 310 310 309 308 305 309 307 295 297 300 299 300 303 297 298 302 299 295 294 296 294 297 302 301 299 299 300 299 300 300 304 307 306 305 309 313 316 317 318 319 320 320
310 310 310 309 305 307 303 308 309 309 289 292 296 299 302 301 297 304 305 300 295 292 294 295 301 298 299 298 299 296 302 301 301 300 297 306 296 306 310 312 315 317 318 318 319
310 310 310 308 307 304 306 310 309 304 278 295 297 307 303 300 301 301 308 302 293 293 294 291 295 297 295 299 302 298 303 302 301 300 300 300 298 302 309 308 311 315 317 318 320
310 310 309 309 309 309 310 309 305 287 278 290 296 296 296 298 298 302 302 304 302 295 296 294 299 298 299 301 301 304 301 301 301 300 294 300 298 299 303 307 310 314 315 317 320
309 308 307 310 304 310 309 302 286 280 292 287 289 293 292 292 294 296 295 295 293 289 290 294 293 296 299 297 301 300 299 292 290 291 291 301 298 301 307 311 312 313 316 318 322
307 306 309 311 311 311 305 293 280 287 287 293 291 292 288 291 291 292 293 290 294 293 290 288 287 293 298 297 297 298 299 293 286 288 292 299 295 300 310 313 315 316 318 320 322
305 312 310 311 312 309 298 286 286 288 291 290 291 288 289 291 291 291 290 290 293 296 288 287 289 299 297 299 300 298 295 302 296 297 293 297 302 307 311 312 314 315 318 320 326
305 308 307 312 313 306 294 288 289 293 293 292 286 288 285 288 287 288 289 294 293 295 297 291 286 296 299 298 300 299 303 294 297 288 288 295 298 300 308 311 313 314 317 320 326
307 302 308 313 311 301 290 290 292 295 295 291 289 288 289 288 290 288 288 293 295 294 296 294 290 291 297 294 294 297 296 298 300 297 291 291 296 312 310 312 313 315 316 320 325
305 297 308 310 297 297 291 292 294 294 296 293 293 291 289 290 289 289 289 292 297 296 290 295 291 289 292 299 300 301 298 299 295 294 297 297 298 313 313 313 315 316 317 323 326
301 301 310 308 291 291 293 293 294 292 294 294 291 293 294 290 287 289 291 296 297 294 293 294 291 286 289 295 300 298 300 301 302 304 297 294 298 313 311 313 315 317 316 323 324
303 295 300 302 300 293 291 291 290 296 294 295 293 294 290 290 292 289 290 293 296 296 298 297 291 288 285 289 293 293 298 300 301 296 297 299 301 306 309 312 315 318 322 323 324
303 297 299 293 293 293 293 292 290 290 294 295 292 292 291 287 289 289 292 292 294 296 296 295 286 289 291 291 292 292 294 298 298 301 297 301 303 306 311 315 319 323 324 322 323
299 295 298 294 295 293 292 290 290 291 291 290 290 291 291 288 290 287 291 292 291 295 293 294 286 290 288 292 290 289 294 298 300 301 303 304 304 310 313 313 318 320 321 321 322
303 303 297 294 293 291 290 290 290 292 293 294 293 291 290 292 296 296 297 296 295 293 293 291 290 289 286 291 290 287 295 299 301 304 304 301 307 311 309 310 315 320 321 322 323

GFSSW_sfc_thetae_048.txt.gz
Theta_e
312 312 312 312 312 313 313 314 314 314 315 315 315 315 315 315 316 308 301 308 313 323 331 319 324 319 316 315 317 315 301 296 299 302 304 310 308 315 318 315 316 318 316 319 323
312 312 312 312 312 313 313 313 314 314 314 314 315 314 315 315 307 303 312 322 327 332 313 308 308 315 313 312 313 308 302 302 306 307 305 309 309 312 313 313 314 316 321 321 323
312 312 312 313 313 313 313 313 313 314 314 314 314 314 314 313 301 302 325 325 326 331 316 312 309 309 310 313 311 309 305 310 311 311 311 309 310 313 312 310 313 313 317 319 318
312 313 312 312 312 312 313 313 313 314 314 314 314 314 314 307 285 304 327 329 332 322 318 307 304 301 299 304 312 305 312 314 314 315 312 309 312 310 312 313 318 319 320 319 317
313 313 313 313 313 312 312 312 313 313 313 314 314 313 307 297 297 303 320 315 309 323 310 305 301 299 295 298 304 305 308 311 313 313 313 313 310 310 311 317 319 318 318 317 316
311 312 312 312 313 313 313 313 313 312 312 312 313 312 302 290 302 305 305 305 304 305 308 304 301 302 298 297 298 302 306 307 308 308 310 310 311 312 314 317 316 317 314 314 315
311 312 311 311 312 313 313 313 313 312 312 313 313 309 300 295 305 303 301 300 303 303 301 306 306 303 300 296 301 301 297 301 303 304 304 308 304 306 313 315 313 314 314 314 314
311 311 312 311 311 312 313 313 312 312 313 314 314 308 295 306 306 304 304 303 305 305 304 304 304 301 298 300 300 297 297 294 301 304 305 305 298 308 312 311 311 312 313 315 316
310 311 311 311 311 311 312 312 312 314 314 314 307 302 294 310 305 307 305 301 304 304 303 306 301 297 298 293 290 293 292 294 298 305 304 303 300 307 312 310 308 310 312 314 315
311 311 311 310 311 311 311 311 312 313 311 312 308 299 301 297 306 309 307 305 302 301 299 297 293 292 290 289 286 289 291 294 295 300 303 301 301 305 308 309 309 310 311 312 313
310 310 310 311 312 311 308 300 297 294 298 294 295 296 299 303 306 305 305 303 302 297 289 292 286 286 290 293 295 295 294 293 297 302 300 299 300 304 306 305 306 308 308 309 311
309 309 310 311 311 311 304 297 299 297 290 299 298 298 301 301 295 298 303 294 293 288 293 289 285 291 294 295 293 292 291 291 295 299 299 299 298 303 305 306 306 307 307 307 308
310 310 310 310 310 304 301 301 303 299 289 294 300 299 299 299 294 295 299 295 290 287 287 288 291 296 292 292 291 291 290 291 291 296 297 295 293 296 301 303 305 306 309 309 309
309 309 310 309 302 300 299 303 302 299 285 289 294 297 300 297 292 300 300 296 291 286 287 286 290 291 292 289 292 287 295 294 293 292 286 295 285 294 298 300 302 304 305 307 310
309 309 309 308 298 297 302 302 302 296 272 292 295 303 300 294 297 299 306 296 289 289 288 285 287 288 288 291 294 290 296 294 294 291 289 291 286 292 296 297 299 302 305 308 309
309 309 308 303 299 302 304 301 297 282 273 288 293 292 293 295 296 299 300 302 300 293 290 289 293 290 289 292 292 294 293 292 292 288 283 288 287 290 293 296 298 302 305 307 308
308 308 306 305 296 302 301 295 280 275 290 285 287 291 291 290 292 293 293 292 289 286 284 290 289 292 293 288 291 288 283 279 278 280 281 290 287 291 295 299 300 301 303 306 307
307 306 303 304 302 302 297 286 275 285 286 291 289 290 287 290 290 291 289 287 294 291 287 284 282 293 297 291 285 285 284 280 275 277 282 290 285 290 299 303 303 304 306 307 303
305 297 300 303 304 300 291 278 280 286 290 288 289 285 285 288 289 289 288 288 292 292 284 283 284 293 293 293 291 286 282 286 282 286 281 286 290 296 300 300 302 302 303 304 309
297 295 298 304 304 297 287 285 288 293 292 291 283 287 283 285 286 286 286 291 290 294 292 288 281 290 292 294 292 290 292 281 281 277 277 283 287 289 294 296 299 300 301 310 317
295 293 301 304 302 291 278 284 289 294 294 289 287 286 286 285 286 285 287 291 293 292 293 288 285 285 290 288 286 288 285 285 284 283 281 279 284 294 295 297 299 303 304 316 318
292 289 301 303 288 289 284 290 294 292 295 293 292 289 288 287 285 287 286 290 295 294 288 289 285 281 284 290 292 291 288 287 280 280 284 285 286 299 297 298 301 303 315 317 320
290 291 301 299 285 282 288 291 293 291 292 291 289 291 291 287 284 287 288 294 295 293 290 291 283 278 279 285 292 289 293 291 288 285 283 281 285 298 299 301 302 303 315 317 319
291 287 290 292 291 285 286 289 288 294 292 291 289 291 288 286 287 285 286 292 295 294 298 295 286 281 276 281 288 285 289 291 288 283 284 286 288 294 298 299 301 307 315 317 319
292 286 289 281 286 288 289 288 287 288 291 291 287 288 286 282 284 284 288 290 293 296 293 290 283 287 286 287 288 287 287 289 288 288 285 289 288 293 296 299 301 308 316 317 318
288 289 292 288 289 289 288 289 288 289 290 287 286 288 288 284 286 284 287 287 287 291 289 291 285 288 285 288 288 287 290 290 290 290 290 290 290 299 301 309 310 313 316 317 318
293 295 294 290 287 287 287 289 291 292 292 292 290 288 287 289 293 293 293 291 290 287 286 286 284 284 281 288 288 283 289 290 290 293 292 287 293 299 307 310 310 312 317 317 319